FW4125 Weather Reports


time (UTC)temp
C
wind
direction
speed
KPH
gust
KPH
rain 1hr
cm
rain 24hr
cm
rain mn
cm
humidity
%
barometer
mb
20260906230011 36 158 0.0 4.8 0.00 0.10 0.08 28 839.6
20260906224514 36 158 1.6 6.4 0.00 0.10 0.08 28 839.6
20260906223013 36 156 0.0 4.8 0.00 0.10 0.08 28 839.6
20260906221518 37 130 0.0 4.8 0.00 0.10 0.08 28 839.6
20260906220033 37 31 1.6 4.8 0.00 0.10 0.08 28 839.6
20260906214528 37 84 1.6 4.8 0.00 0.10 0.08 28 839.6
20260906213021 37 28 1.6 6.4 0.00 0.10 0.08 26 839.6
20260906211527 37 158 1.6 6.4 0.00 0.10 0.08 27 839.6
20260906210031 37 137 0.0 4.8 0.00 0.10 0.08 28 839.6
20260906204534 38 100 1.6 6.4 0.00 0.10 0.08 26 839.6
20260906203030 38 106 1.6 8.0 0.00 0.10 0.08 29 839.6
20260906201528 38 95 1.6 6.4 0.00 0.10 0.08 28 839.6
20260906200022 37 166 1.6 11.3 0.00 0.10 0.08 30 839.6
20260906194521 37 81 1.6 6.4 0.00 0.10 0.08 31 839.6
20260906193021 36 144 0.0 3.2 0.00 0.10 0.08 34 839.6
20260906191525 36 100 0.0 6.4 0.00 0.10 0.08 33 839.6
20260906190019 36 316 3.2 6.4 0.00 0.10 0.08 32 839.6
20260906184532 36 163 0.0 4.8 0.00 0.10 0.08 35 839.6
20260906183032 35 135 1.6 6.4 0.00 0.10 0.08 35 839.6
20260906181532 35 90 1.6 8.0 0.00 0.10 0.08 36 839.6
20260906180022 34 254 1.6 6.4 0.00 0.10 0.08 39 839.6
20260906174521 33 222 0.0 6.4 0.00 0.10 0.08 41 839.6
20260906173021 32 117 1.6 6.4 0.00 0.10 0.08 44 839.6
20260906171518 31 229 0.0 4.8 0.00 0.10 0.08 50 839.6
20260906170016 30 77 0.0 4.8 0.00 0.10 0.08 53 839.6
20260906164516 29 34 0.0 3.2 0.00 0.10 0.08 56 839.6
20260906163016 28 267 0.0 4.8 0.00 0.10 0.08 58 839.6
20260906161515 27 111 0.0 0.0 0.00 0.10 0.08 59 839.6
20260906160012 27 39 0.0 3.2 0.00 0.10 0.08 62 839.6
20260906154513 26 202 0.0 4.8 0.00 0.10 0.08 65 839.6
20260906153021 26 142 0.0 3.2 0.00 0.10 0.08 68 839.6
20260906151514 26 170 0.0 1.6 0.00 0.10 0.08 68 839.6
20260906150017 26 170 0.0 1.6 0.00 0.10 0.08 69 839.6
20260906144520 25 170 0.0 1.6 0.00 0.10 0.08 69 839.6
20260906143020 25 171 0.0 1.6 0.00 0.10 0.08 69 839.6
20260906141520 25 171 0.0 0.0 0.00 0.10 0.08 68 839.6
20260906140036 25 171 0.0 1.6 0.00 0.10 0.08 68 839.6
20260906134516 25 171 0.0 1.6 0.00 0.10 0.08 68 839.6
20260906133017 25 171 0.0 0.0 0.00 0.10 0.08 67 839.6
20260906131516 24 171 0.0 0.0 0.00 0.10 0.08 67 839.6
20260906130017 24 171 0.0 0.0 0.00 0.10 0.08 67 839.6
20260906124520 24 171 0.0 0.0 0.00 0.10 0.08 66 839.6
20260906123020 24 171 0.0 0.0 0.00 0.10 0.08 66 839.6
20260906121517 24 171 0.0 0.0 0.05 0.10 0.08 66 839.6
20260906120022 24 171 0.0 0.0 0.05 0.10 0.08 65 839.6
20260906114526 24 171 0.0 0.0 0.05 0.10 0.08 65 839.6
20260906113033 25 171 0.0 0.0 0.05 0.10 0.08 65 839.6
20260906111524 25 171 0.0 0.0 0.00 0.05 0.03 66 839.6
20260906110026 25 171 0.0 0.0 0.00 0.05 0.03 65 839.6
20260906104532 25 171 0.0 0.0 0.00 0.05 0.03 65 839.6
20260906103023 25 171 0.0 0.0 0.00 0.05 0.03 65 839.6
20260906101525 25 171 0.0 0.0 0.00 0.05 0.03 65 839.6
20260906100030 25 171 0.0 0.0 0.00 0.05 0.03 65 839.6
20260906094520 25 171 0.0 0.0 0.00 0.05 0.03 65 839.6
20260906093041 25 171 0.0 0.0 0.00 0.05 0.03 65 839.6
20260906091521 25 171 0.0 0.0 0.00 0.05 0.03 65 839.6
20260906090021 25 171 0.0 0.0 0.00 0.05 0.03 65 839.6
20260906084530 25 171 0.0 0.0 0.00 0.05 0.03 64 839.6
20260906083034 25 171 0.0 0.0 0.00 0.05 0.03 64 839.6
20260906081525 25 171 0.0 0.0 0.03 0.05 0.03 64 839.6
20260906080024 25 171 0.0 0.0 0.03 0.05 0.03 64 839.6
20260906074532 26 171 0.0 1.6 0.03 0.05 0.03 64 839.6
20260906073023 26 171 0.0 0.0 0.03 0.08 0.03 63 839.6
20260906071515 26 171 0.0 1.6 0.00 0.05 0.00 63 839.6
20260906070016 26 176 0.0 1.6 0.00 0.05 0.00 63 839.6
20260906064518 26 176 0.0 0.0 0.00 0.05 0.00 63 839.6
20260906063020 26 176 0.0 0.0 0.00 0.05 0.00 62 839.6
20260906061524 26 176 0.0 0.0 0.00 0.05 0.00 61 839.6
20260906060022 26 176 0.0 1.6 0.00 0.05 0.00 60 839.6
20260906054520 26 176 0.0 0.0 0.00 0.05 0.00 58 839.6
20260906053020 27 178 0.0 0.0 0.03 0.05 0.05 56 839.6
20260906051525 27 180 0.0 0.0 0.03 0.05 0.05 53 839.6
20260906050027 28 183 0.0 0.0 0.03 0.05 0.05 51 839.6
20260906044532 30 177 0.0 1.6 0.03 0.05 0.05 49 839.6
20260906043036 30 176 0.0 1.6 0.00 0.03 0.03 49 839.6
20260906041547 30 176 0.0 0.0 0.00 0.03 0.03 48 839.6
20260906040037 30 176 0.0 0.0 0.00 0.03 0.03 47 839.6
20260906034543 30 176 0.0 1.6 0.00 0.03 0.03 46 839.6
20260906033045 31 176 0.0 0.0 0.00 0.03 0.03 45 839.6
20260906031540 31 176 0.0 3.2 0.00 0.03 0.03 45 839.6
20260906030041 31 176 0.0 3.2 0.00 0.03 0.03 44 839.6
20260906024551 31 176 0.0 1.6 0.00 0.03 0.03 43 839.6
20260906023041 32 176 0.0 3.2 0.00 0.03 0.03 43 839.6
20260906021537 32 173 0.0 3.2 0.00 0.03 0.03 41 839.6
20260906020043 32 173 0.0 3.2 0.00 0.03 0.03 40 839.6
20260906014551 33 173 0.0 8.0 0.00 0.03 0.03 39 839.6
20260906013048 33 166 0.0 8.0 0.00 0.03 0.03 37 839.6
20260906011558 34 154 1.6 4.8 0.00 0.03 0.03 34 839.6
20260906010126 35 129 0.0 0.0 0.00 0.03 0.03 31 839.6
20260906004558 35 129 0.0 0.0 0.00 0.03 0.03 29 839.6
20260906003057 36 129 0.0 0.0 0.00 0.03 0.03 29 839.6
20260906001606 36 129 0.0 3.2 0.00 0.03 0.03 29 839.6
20260906000101 36 68 0.0 1.6 0.00 0.03 0.03 28 839.6
20260905234503 36 68 0.0 3.2 0.00 0.03 0.03 28 839.6
20260905233003 36 68 0.0 4.8 0.00 0.03 0.03 27 839.6
20260905231603 36 133 0.0 1.6 0.00 0.03 0.03 27 839.6